カタログに戻る

STARLINK-36163

運用中通信VLEO
NORAD 67008·PAYLOAD·🇺🇸 United States

打ち上げ Dec 10, 2025 から Vandenberg Space Force Base

Loading…

次のパス (今後24時間)

TLE

最新Source: CelesTrak SupGP

元期: Sep 14, 2026, 22:48 UTC

1 67008C 25293F   26257.95048611 -.00012264  00000+0 -10280-2 0  2574
2 67008  70.0017 337.3152 0003587 268.8879 177.7548 14.98326134    14

AllMySatでSTARLINK-36163をリアルタイム追跡

Download on the App Store